Location: Piotrkow Trybunalski
(51.4000°N, 19.6830°E)
Time: 23:51:41
(UTC+01:00)

A-11 Canister half - Pass Details

Date: 11 December 2023
Orbit: 1512 x 1687 km, 47.2° (Epoch: 23 February)

Event Time Altitude Azimuth Distance (km) Brightness Sun altitude
Exits shadow 02:59:52 45° 146° (SE) 2,151 9.7 -41.5°
Drops below altitude 10° 03:06:38 10° 123° (ESE) 3,932 11.5 -40.5°
Sets 03:09:52 0° 120° (ESE) 4,929 12.2 -40.0°
